Location: Bukit Nyuki
(2.5885°N, 113.7476°E)
Time: 05:35:12
(UTC+00:00)

Cosmos 405 Rocket - Pass Details

Date: 18 May 2021
Orbit: 488 x 553 km, 81.3° (Epoch: 22 June)

Event Time Altitude Azimuth Distance (km) Brightness Sun altitude
Rises 21:45:44 0° 202° (SSW) 2,725 6.0 -7.5°
Reaches altitude 10° 21:48:05 10° 213° (SSW) 1,828 5.0 -7.0°
Maximum altitude 21:51:40 31° 275° (W) 986 3.6 -6.1°
Drops below altitude 10° 21:55:13 10° 338° (NNW) 1,809 5.5 -5.3°
Sets 21:57:32 0° 349° (NNW) 2,690 6.5 -4.8°
